(115428) = 2003 SH313

Discovered at Goodricke-Pigott on 2003-09-18 by R. A. Tucker.

Orbit

Orbit type: Main Belt

Note: WebGL enabled browser required.

epoch2023-09-13.0
epoch JD2460200.5
perihelion date2019-12-19.05625
perihelion JD2458836.55625
argument of perihelion (°)186.95260
ascending node (°)170.96444
inclination (°)14.73767
eccentricity0.1479705
perihelion distance (AU)2.1824015
Tisserand w.r.t. Jupiter3.4
ΔV w.r.t. Earth (km/sec)10.3
semimajor axis (AU)2.5614155
mean anomaly (°)327.92932
mean daily motion (°/day)0.24042730
aphelion distance (AU)2.940
period (years)4.1
P-vector [x]0.99871382
P-vector [y]-0.02470669
P-vector [z]-0.04427514
Q-vector [x]0.03121785
Q-vector [y]0.98773302
Q-vector [z]0.15299974
absolute magnitude15.49
phase slope0.15
uncertainty0
referenceMPEC 2024-A34
observations used1087
oppositions20
arc length (days)9322
first opposition used1998
last opposition used2023
residual rms (arc-secs)0.67
perturbers coarse indicatorM-v
perturbers precise indicator003Ek
first observation date used1998-05-28.0
last observation date used2023-12-05.0
computer nameMPCLINUX
JD of orbit computation2456937.480374
perihelion JD uncertainty (days)3.9540E-05
argument of perihelion uncertainty (°)1.4859E-05
ascending node uncertainty (°)1.0379E-05
inclination uncertainty (°)5.0387E-06
eccentricity uncertainty 4.8335E-08
perihelion distance uncertainty (AU)1.2796E-07
Minimum Orbit Intersection Distances (in AU)
for orbit epoch: 2460200.5, reference: E2024-A34
Mercury1.81347
Venus1.45607
Earth1.17787
Mars0.79088
Jupiter2.49559
Saturn6.42374
Uranus15.513
Neptune27.587

Observations

1122 total observations over interval: 1998 05 28.36300 – 2023 12 05.234380
These data are available for download (format description).

Date (UT) J2000 RA J2000 Dec Magn Location Ref
1998 05 28.36300 16 42 57.54 +01 01 31.2 19.4 V 691 – Steward Observatory, Kitt Peak-Spacewatch MPS 91023
1998 05 28.38379 16 42 56.40 +01 01 36.3 19.4 V 691 – Steward Observatory, Kitt Peak-Spacewatch MPS 91023
1998 05 28.40465 16 42 55.27 +01 01 41.3 19.4 V 691 – Steward Observatory, Kitt Peak-Spacewatch MPS 91023
1999 09 13.43100 03 18 47.41 +05 30 09.0 18.3 R 703 – Catalina Sky Survey MPS 90567
1999 09 13.44248 03 18 47.87 +05 30 03.1 18.7 R 703 – Catalina Sky Survey MPS 90567
1999 09 13.45395 03 18 48.05 +05 29 56.5 18.7 R 703 – Catalina Sky Survey MPS 90567
1999 09 13.46537 03 18 48.50 +05 29 51.0 18.2 R 703 – Catalina Sky Survey MPS 90567
1999 10 09.32131 03 19 54.13 +00 51 37.9 18.7   704 – Lincoln Laboratory ETS, New Mexico MPS 90567
1999 10 09.33680 03 19 53.75 +00 51 26.8 18.6   704 – Lincoln Laboratory ETS, New Mexico MPS 90567
1999 10 09.35235 03 19 53.38 +00 51 16.1 18.9   704 – Lincoln Laboratory ETS, New Mexico MPS 90567
1999 10 09.36814 03 19 53.01 +00 51 04.7 18.6   704 – Lincoln Laboratory ETS, New Mexico MPS 90567
1999 10 09.38359 03 19 52.67 +00 50 53.6 18.7   704 – Lincoln Laboratory ETS, New Mexico MPS 90567
1999 11 07.25818 03 00 34.66 -04 13 33.5 17.8   704 – Lincoln Laboratory ETS, New Mexico MPS 90567
1999 11 07.27444 03 00 33.80 -04 13 41.0 17.4   704 – Lincoln Laboratory ETS, New Mexico MPS 90567
1999 11 07.29064 03 00 32.95 -04 13 49.3 17.4   704 – Lincoln Laboratory ETS, New Mexico MPS 90567
1999 11 07.30697 03 00 32.13 -04 13 56.0 17.4   704 – Lincoln Laboratory ETS, New Mexico MPS 90567
1999 12 02.21734 02 42 44.84 -05 49 47.8 18.2   704 – Lincoln Laboratory ETS, New Mexico MPS 90567
1999 12 02.23654 02 42 44.42 -05 49 47.5 18.0   704 – Lincoln Laboratory ETS, New Mexico MPS 90567
1999 12 02.25392 02 42 43.89 -05 49 47.3 17.8   704 – Lincoln Laboratory ETS, New Mexico MPS 90567
2001 02 20.382270 10 17 23.400 +03 20 07.00 19.50 V 645 – Apache Point-Sloan Digital Sky Survey MPS 90567
2001 02 20.385742 10 17 23.220 +03 20 08.81 20.38   645 – Apache Point-Sloan Digital Sky Survey MPS 90567
2002 05 07.32874 16 10 50.55 +00 03 41.4 19.4   704 – Lincoln Laboratory ETS, New Mexico MPS 90567
2002 05 07.34101 16 10 50.00 +00 03 47.0 19.3   704 – Lincoln Laboratory ETS, New Mexico MPS 90567
2002 05 07.37785 16 10 48.26 +00 04 04.1 19.2   704 – Lincoln Laboratory ETS, New Mexico MPS 90567
2002 05 15.31415 16 04 26.00 +00 57 04.2 19.0   704 – Lincoln Laboratory ETS, New Mexico MPS 90567
2002 05 15.34385 16 04 24.47 +00 57 14.4 19.1   704 – Lincoln Laboratory ETS, New Mexico MPS 90567
2002 05 15.35878 16 04 23.72 +00 57 20.4 19.0   704 – Lincoln Laboratory ETS, New Mexico MPS 90567
2002 06 08.34793 15 44 07.86 +02 24 52.3 19.2   644 – Palomar Mountain/NEAT MPS 90567
2002 06 08.35862 15 44 07.36 +02 24 52.9 19.1   644 – Palomar Mountain/NEAT MPS 90567
2002 06 08.36949 15 44 06.84 +02 24 53.5 19.1   644 – Palomar Mountain/NEAT MPS 90567
2003 07 30.39450 01 46 02.01 +07 54 15.0 19.1   704 – Lincoln Laboratory ETS, New Mexico MPS 89562
2003 07 30.40559 01 46 02.79 +07 54 13.5 19.4   704 – Lincoln Laboratory ETS, New Mexico MPS 89562
2003 07 30.41669 01 46 03.48 +07 54 14.4 19.5   704 – Lincoln Laboratory ETS, New Mexico MPS 89562
2003 07 30.43833 01 46 04.95 +07 54 11.7 19.5   704 – Lincoln Laboratory ETS, New Mexico MPS 89562
2003 08 26.36220 02 09 13.62 +06 02 06.4 18.8   704 – Lincoln Laboratory ETS, New Mexico MPS 89562
2003 08 26.37476 02 09 14.01 +06 02 00.8 19.5   704 – Lincoln Laboratory ETS, New Mexico MPS 89562
2003 08 26.38788 02 09 14.38 +06 01 54.5 19.3   704 – Lincoln Laboratory ETS, New Mexico MPS 89562
2003 08 26.40067 02 09 14.83 +06 01 50.0 19.4   704 – Lincoln Laboratory ETS, New Mexico MPS 89562
2003 08 26.41322 02 09 15.17 +06 01 44.7 19.3   704 – Lincoln Laboratory ETS, New Mexico MPS 89562
2003 09 03.37757 02 12 38.61 +04 56 40.3 19.4   704 – Lincoln Laboratory ETS, New Mexico MPS 89562
2003 09 03.38942 02 12 38.80 +04 56 33.9 19.3   704 – Lincoln Laboratory ETS, New Mexico MPS 89562
2003 09 03.40114 02 12 39.01 +04 56 27.1 19.5   704 – Lincoln Laboratory ETS, New Mexico MPS 89562
2003 09 03.41301 02 12 39.24 +04 56 20.6 19.4   704 – Lincoln Laboratory ETS, New Mexico MPS 89562
2003 09 18.36905 02 13 58.33 +02 17 26.6 20.4 R 683 – Goodricke-Pigott Observatory, Tucson MPS 87400
2003 09 18.38246 02 13 58.10 +02 17 16.4 19.7 R 683 – Goodricke-Pigott Observatory, Tucson MPS 87400
2003 09 18.39582 02 13 57.95 +02 17 07.8 19.6 R 683 – Goodricke-Pigott Observatory, Tucson MPS 87400
2003 09 19.35747 02 13 49.29 +02 05 30.7 18.5   704 – Lincoln Laboratory ETS, New Mexico MPS 89562
2003 09 19.36994 02 13 49.13 +02 05 20.7 18.8   704 – Lincoln Laboratory ETS, New Mexico MPS 89562
2003 09 19.38257 02 13 49.00 +02 05 11.1 18.8   704 – Lincoln Laboratory ETS, New Mexico MPS 89562
2003 09 19.39483 02 13 48.82 +02 05 02.1 18.5   704 – Lincoln Laboratory ETS, New Mexico MPS 89562
2003 09 19.40710 02 13 48.67 +02 04 53.4 18.4   704 – Lincoln Laboratory ETS, New Mexico MPS 89562
2003 09 19.60973 02 13 46.50 +02 02 25.9 20.0   608 – Haleakala-AMOS MPS 89562
2003 09 19.62022 02 13 46.32 +02 02 18.1 19.7   608 – Haleakala-AMOS MPS 89562
2003 09 19.63060 02 13 46.21 +02 02 10.8 19.7   608 – Haleakala-AMOS MPS 89562
2003 09 20.35933 02 13 38.41 +01 53 12.6 19.0 R 683 – Goodricke-Pigott Observatory, Tucson MPS 87400
2003 09 20.37273 02 13 38.24 +01 53 03.9 19.1 R 683 – Goodricke-Pigott Observatory, Tucson MPS 87400
2003 09 20.38611 02 13 38.05 +01 52 54.1 19.2 R 683 – Goodricke-Pigott Observatory, Tucson MPS 87400
2003 09 28.380210 02 11 09.418 +00 10 57.73 18.59 V 645 – Apache Point-Sloan Digital Sky Survey MPS 137022
2003 09 28.383682 02 11 09.322 +00 10 54.97 19.48   645 – Apache Point-Sloan Digital Sky Survey MPS 137022
2003 10 16.32237 02 00 22.89 -03 41 02.6 17.9 R 699 – Lowell Observatory-LONEOS MPS 89562
2003 10 16.33896 02 00 22.14 -03 41 15.3   699 – Lowell Observatory-LONEOS MPS 89562
2003 10 16.35565 02 00 21.35 -03 41 26.9   699 – Lowell Observatory-LONEOS MPS 89562
2003 10 16.37226 02 00 20.56 -03 41 39.0   699 – Lowell Observatory-LONEOS MPS 89562
2003 10 16.39267 02 00 19.93 -03 41 50.6 19.6   608 – Haleakala-AMOS MPS 89562
2003 10 16.40355 02 00 19.41 -03 41 59.0 18.8   608 – Haleakala-AMOS MPS 89562
2003 10 16.41428 02 00 18.92 -03 42 07.5 18.6   608 – Haleakala-AMOS MPS 89562
2003 10 19.26339 01 58 12.23 -04 15 45.8 18.0   704 – Lincoln Laboratory ETS, New Mexico MPS 89562
2003 10 19.27479 01 58 11.70 -04 15 53.8 18.4   704 – Lincoln Laboratory ETS, New Mexico MPS 89562
2003 10 19.28629 01 58 11.14 -04 16 01.3 18.3   704 – Lincoln Laboratory ETS, New Mexico MPS 89562
2003 10 19.29751 01 58 10.62 -04 16 09.5 18.4   704 – Lincoln Laboratory ETS, New Mexico MPS 89562
2003 10 19.30897 01 58 10.08 -04 16 17.6 18.4   704 – Lincoln Laboratory ETS, New Mexico MPS 89562
2003 10 23.44004 01 55 03.09 -05 01 56.2 19.7   608 – Haleakala-AMOS MPS 89562
2003 10 23.45077 01 55 02.54 -05 02 01.7 19.1   608 – Haleakala-AMOS MPS 89562
2003 10 23.46170 01 55 02.00 -05 02 08.7 18.8   608 – Haleakala-AMOS MPS 89562
2003 11 16.15534 01 40 05.27 -07 45 56.6 18.4 V 703 – Catalina Sky Survey MPS 91023
2003 11 16.16553 01 40 05.00 -07 45 59.8 18.6 V 703 – Catalina Sky Survey MPS 91023
2003 11 16.17568 01 40 04.74 -07 46 02.2 18.5 V 703 – Catalina Sky Survey MPS 91023
2003 11 16.18587 01 40 04.40 -07 46 04.7 18.3 V 703 – Catalina Sky Survey MPS 91023
2003 11 24.20160 01 37 32.11 -07 59 24.2 18.6 V 703 – Catalina Sky Survey MPS 91850
2003 11 24.21285 01 37 31.88 -07 59 25.2 18.9 V 703 – Catalina Sky Survey MPS 91850
2003 11 24.22411 01 37 31.73 -07 59 23.5 18.8 V 703 – Catalina Sky Survey MPS 91850
2003 11 24.23534 01 37 31.54 -07 59 25.8 18.2 V 703 – Catalina Sky Survey MPS 91850
2003 12 13.14827 01 38 23.23 -07 17 22.7 19.6   704 – Lincoln Laboratory ETS, New Mexico MPS 93717
2003 12 13.16120 01 38 23.39 -07 17 18.8 19.5   704 – Lincoln Laboratory ETS, New Mexico MPS 93717
2003 12 13.17426 01 38 23.58 -07 17 15.8 19.4   704 – Lincoln Laboratory ETS, New Mexico MPS 93717
2003 12 13.17812 01 38 23.69 -07 17 16.1 18.7   644 – Palomar Mountain/NEAT MPS 93717
